Regional Weather Roundup
Issued by NWS

Home | Current Version | Previous Version | Graphics & Text | Print | Product List | Glossary On
Versions: 1 2 3 4 5 6 7 8 9 10 11 12 13 14 15 16 17 18 19 20 21 22 23 24 25 26 27 28 29 30 31 32 33 34 35 36 37 38 39 40 41 42 43 44 45 46 47 48 49 50
000
ASUS45 KABQ 050301
RWRNM
NEW MEXICO REGIONAL WEATHER ROUNDUP
NATIONAL WEATHER SERVICE ALBUQUERQUE NM
900 PM MDT SAT JUL 04 2015

NOTE: "FAIR" MEANS FEW OR NO CLOUDS BELOW 12,000 FEET AGL WITH NO
       SIGNIFICANT WEATHER OR OBSTRUCTIONS TO VISION.

      THIS PRODUCT IS RELEASED AS TWO VERSIONS.  ONE VERSION NEAR
      THE TOP OF THE HOUR CONTAINING PRELIMINARY DATA FROM ALBUQUERQUE
      AND OTHER STATIONS.  A FINAL VERSION WITH ADDITIONAL DATA IS
      ISSUED ABOUT 10 MINUTES AFTER THE HOUR.

NMZ501-503-504-510>518-050400-
NORTHWEST PLATEAU/NORTHCENTRAL MOUNTAINS

CITY           SKY/WX    TMP DP  RH WIND       PRES   REMARKS
FARMINGTON     CLOUDY    67  56  67 E10       30.15R
SANTA FE       CLOUDY    71  55  56 SE5       30.16R
TAOS           MOCLDY    68  43  40 E8        30.22S
ANGEL FIRE     MOCLDY    53  52  94 CALM      30.35R

$$
NMZ402-403-502-505>509-050400-
WESTCENTRAL MOUNTAINS/SOUTHWEST MOUNTAINS

CITY           SKY/WX    TMP DP  RH WIND       PRES   REMARKS
GALLUP         CLOUDY    63  57  81 SW3       30.21S
GRANTS         CLOUDY    64  56  75 SE5       30.23R
SILVER CITY      N/A     68  59  73 N16G24    30.13R

$$
NMZ407-409-411-412-050400-
SOUTHERN DESERTS

CITY           SKY/WX    TMP DP  RH WIND       PRES   REMARKS
LORDSBURG      FAIR      79  55  44 N9        30.01F
DEMING         CLOUDY    84  59  42 E7        30.00R
HOLLOMAN AFB   MOCLDY    85  53  33 SW17      29.98R
ALAMOGORDO     MOCLDY    84  54  34 NE6       29.99R
T OR C         CLOUDY    71  60  68 N9        30.10R

$$
NMZ519>523-050400-
CENTRAL VALLEYS/CENTRAL HIGHLANDS

CITY           SKY/WX    TMP DP  RH WIND       PRES   REMARKS
ALBUQUERQUE    CLOUDY    79  53  40 W10       30.10R
DOUBLE EAGLE   CLEAR     70  61  73 SW6       30.14S
MORIARTY ARPT    N/A     66  55  67 SE3       30.17R
CLINES CORNERS NOT AVBL
BELEN          FAIR      76  52  43 SW7       30.09S
SOCORRO        NOT AVBL

$$
NMZ524>526-539-540-050400-
SOUTHCENTRAL MOUNTAINS

CITY           SKY/WX    TMP DP  RH WIND       PRES   REMARKS
RUIDOSO        NOT AVBL

$$
NMZ527>531-050400-
NORTHEAST HIGHLANDS/NORTHEAST PLAINS

CITY           SKY/WX    TMP DP  RH WIND       PRES   REMARKS
LAS VEGAS      CLOUDY    64  55  72 SW10      30.20R
RATON          MOCLDY    73  53  49 W5        30.13R
CLAYTON        PTCLDY    72  53  51 S9        30.05R

$$
NMZ532>537-050400-
EASTCENTRAL PLAINS

CITY           SKY/WX    TMP DP  RH WIND       PRES   REMARKS
TUCUMCARI      CLOUDY    81  56  42 S9        29.99R
CANNON AFB     CLOUDY    74  61  64 S8        30.04R
CLOVIS AIRPORT CLOUDY    75  57  53 S8          N/A

$$
NMZ028-029-538-050400-
SOUTHEAST PLAINS

CITY           SKY/WX    TMP DP  RH WIND       PRES   REMARKS
ROSWELL        CLOUDY    82  55  39 SE5       29.98R
ARTESIA        PTCLDY    84  57  39 SE8       29.99R
CARLSBAD       PTCLDY    84  59  42 SE10      29.96R
HOBBS          PTCLDY    79  59  50 SE8       30.03R


$$


USA.gov is the U.S. government's official web portal to all federal, state and local government web resources and services.